STARLINK-34846, 66972

Orbit data source: Space-Track

STARLINK-34846, 66972 is a payload satellite owned by SpaceX/Seattle (US) in LEO that was launched on Mon, 08 Dec 2025 UTC via an FALCON 9 launch vehicle from the Air Force Eastern Test Range (AFETR). Payload-class satellites include a variety of spacecraft equipped with specific instruments for various scientific and technological missions. These include communications satellites like Starlink; space stations such as the ISS; scientific satellites like the Hubble; Earth observation satellites from companies like Planet Labs, Umbra, and HawkEye 360; GPS; miniature CubeSats for education and research; and military/defense satellites.

Loading next visibility...
Identifier
66972, 2025-288P
Orbit
LEO
Country
Flag of USUS
Related business
Manufacturer
SpaceX/Seattle
Mission
Operational Commercial Communications
Bus & Motor
STARLINK V2MO, Unknown motor
Mass
575 kg wet, ~530 kg dry
Launch date (UTC)
2025-12-08 (5 months ago)
Launch vehicle
FALCON 9
Launch site
Air Force Eastern Test Range (AFETR)
Object type
Payload
Rocket body
Debris
Shape & HBR
Box + 2 Pan, 17.7 m
Radar Cross Section
36.964 m²

Expand to show TLE details & history
Last TLE update: 10 hours ago

TLE from 10 hours ago
0 STARLINK-34846
1 66972U 25288P   26130.05066546  .00003341  00000-0  13092-3 0  9998
2 66972  43.0020  36.7566 0001179 271.9829  88.0888 15.27571864 24675
Epoch: 2026-05-10T01:12Z
TLE epoch observation values (Epoch: 2026-05-10T01:12:57.495Z)
Latitude
-0.00001°
Longitude
150.65772°
Altitude
482.822 km
Speed
7.626 km/s
True Right ascension
02h 27m 01s
True Declination
0° 00' 00"
Sunlit
Object was in daylight at epoch
Visualization orbit readout
Latitude
Unknown
Longitude
Unknown
Altitude
Unknown
Speed
Unknown
Apparent Right ascension
Unknown
Apparent Declination
Unknown
Sunlit
N/A
Visualization observer readout
Local Sidereal Time
19:47:44
Azimuth
Unknown
Elevation
Unknown
Doppler factor
Unknown
Orbital elements
Apogee altitude
485.827 km
Perigee altitude
484.209 km
Semi-major axis
6,863.155 km
Eccentricity
0.00012
Inclination
43.002°
RAAN
36.7566°
Arg. of periapsis
271.9829°
True anomaly
88.1023°
Mean anomaly
88.0888°
Eccentric anomaly
88.09555°
Mean motion
3.81731 °/min
Orbital period
94.31 mins
BSTAR
0.00013092
Loading maneuver chart data...
Computing Atmospheric mass density...
Loading historical data...
Loading historical data...
Loading historical data...
Loading historical data...
Loading historical data...
Loading historical data...
Loading historical data...

Documentation

Showing up to 5 results
|